[[{"header":{"parameterUnit":"m.s-1","parameterCategory":1,"la1":30.2991,"la2":30.254,"lo1":-89.0895,"lo2":-89.0444,"dy":0.0017,"dx":0.0017,"nx":28,"ny":28,"refTime":"2024-05-02T03:00:00:Z","depth":0,"parameterNumber":2,"parameterNumberName":"U-component_of_WINDS"},"data":[0,0,0,0,0,0,0,0,0,0,0,0,0,0,0,0,0,0,0,0,0,0,0,0,0,0,0,0,0,0,0,0,0,0,0,0,0,0,0,0,0,0,0,0,0,0,0,0,0,0,0,0,0,0,0,0,0,0,-1.8835,-1.8835,0,-1.8859,-1.8859,-1.886,-1.8834,-1.8833,-1.8832,-1.8832,-1.8856,-1.8858,-1.8859,0,0,0,0,0,0,0,0,0,0,0,0,0,-1.8767,-1.8768,-1.8835,-1.8835,-1.8835,-1.8859,-1.8859,-1.886,-1.8835,-1.8833,-1.8832,-1.8831,-1.8856,-1.8858,-1.886,0,0,0,0,0,0,0,0,0,0,0,0,0,-1.8794,-1.8769,-1.8835,-1.8826,-1.8825,-1.8859,-1.8859,-1.886,-1.8835,-1.8833,-1.8832,-1.8831,-1.8855,-1.8858,-1.886,-1.8904,0,0,-1.8867,-1.8868,0,0,0,0,0,0,0,0,-1.8793,-1.8797,-1.8827,-1.8826,-1.8826,-1.8842,-1.8845,-1.8875,-1.8835,-1.8831,-1.8832,-1.883,-1.8853,-1.8855,-1.8863,-1.8905,-1.8906,-1.8867,-1.8869,-1.887,-1.887,0,0,0,0,0,0,0,-1.8791,-1.8796,-1.8844,-1.8827,-1.8827,-1.8821,-1.8823,-1.885,-1.885,-1.8831,-1.883,-1.8833,-1.8852,-1.8861,-1.8864,-1.8906,-1.8867,-1.8869,-1.8871,-1.8872,-1.8986,-1.8987,0,0,0,0,0,0,-1.879,-1.8794,-1.8844,-1.8845,-1.8805,-1.8823,-1.8826,-1.8838,-1.885,-1.885,-1.8834,-1.8832,-1.8858,-1.8861,-1.8864,-1.8916,-1.887,-1.8872,-1.8873,-1.8984,-1.8986,-1.8988,0,0,0,0,0,0,-1.8789,-1.8795,-1.8843,-1.8819,-1.8825,-1.8826,-1.884,-1.884,-1.8848,-1.8852,-1.8851,-1.8843,-1.8857,-1.8861,-1.8894,-1.8917,-1.8873,-1.8875,-1.8982,-1.8985,-1.8987,-1.9021,0,0,0,0,0,0,-1.8787,-1.8794,-1.8811,-1.882,-1.8826,-1.8872,-1.8842,-1.8841,-1.8852,-1.8849,-1.886,-1.886,-1.8856,-1.8891,-1.8897,-1.8919,-1.8877,-1.898,-1.8983,-1.8986,-1.9018,-1.9024,-1.903,0,0,0,0,0,-1.8785,-1.8819,-1.8812,-1.8818,-1.8847,-1.8874,-1.8877,-1.8871,-1.8854,-1.8871,-1.8873,-1.886,-1.8914,-1.8894,-1.8901,-1.8924,-1.8979,-1.8982,-1.8986,-1.9015,-1.9023,-1.9029,0,0,0,0,0,0,-1.8813,-1.882,-1.8812,-1.8851,-1.8862,-1.8869,-1.889,-1.888,-1.8896,-1.8892,-1.8885,-1.8887,-1.8922,-1.8927,-1.8905,-1.8968,-1.8943,-1.8948,-1.8963,-1.8971,-1.8977,-1.8974,-1.8879,0,0,0,0,0,-1.8824,-1.8845,-1.885,-1.8884,-1.889,-1.8889,-1.89,-1.8895,-1.8906,-1.8911,-1.8915,-1.8926,-1.8946,-1.8959,-1.8977,-1.9018,-1.902,-1.9038,-1.9044,-1.9049,-1.9053,-1.9075,-1.9083,-1.9,-1.9,-1.9,0,0,-1.8846,-1.8853,-1.8867,-1.889,-1.8898,-1.8919,-1.8893,-1.8917,-1.8933,-1.8914,-1.8946,-1.895,-1.8962,-1.8999,-1.9016,-1.9004,-1.9077,-1.9053,-1.9057,-1.9059,-1.908,-1.9088,-1.9095,-1.9002,-1.9002,-1.9001,0,0,-1.8898,-1.8906,-1.8935,-1.8943,-1.8955,-1.8955,-1.8962,-1.8971,-1.8973,-1.9004,-1.899,-1.901,-1.9043,-1.9052,-1.9061,-1.9118,-1.9106,-1.9124,-1.9155,-1.9177,-1.9183,-1.9189,-1.9209,-1.9216,-1.9128,-1.9128,-1.9128,0,-1.8925,-1.8957,-1.8951,-1.8976,-1.8987,-1.8971,-1.9,-1.9008,-1.9026,-1.9034,-1.902,-1.9062,-1.9069,-1.9109,-1.9122,-1.913,-1.9138,-1.9122,-1.9183,-1.9189,-1.9194,-1.9213,-1.922,-1.913,-1.913,-1.913,-1.913,0,-1.8989,-1.9012,-1.9033,-1.9051,-1.9064,-1.9091,-1.9089,-1.9103,-1.9097,-1.9098,-1.9131,-1.9139,-1.9158,-1.9167,-1.9161,-1.9206,-1.9198,-1.9184,-1.9159,-1.9204,-1.9221,-1.9229,-1.9133,-1.9133,-1.9132,-1.9132,0,0,-1.9059,-1.9073,-1.9081,-1.9088,-1.9101,-1.9118,-1.9145,-1.9164,-1.9176,-1.9189,-1.9211,-1.9241,-1.9228,-1.9238,-1.9233,-1.9253,-1.9296,-1.9236,-1.9236,-1.9246,-1.9346,-1.9356,-1.9365,-1.9289,-1.929,-1.9291,-1.9345,0,-1.9111,-1.9157,-1.9152,-1.9196,-1.9217,-1.9202,-1.9225,-1.9236,-1.9237,-1.9256,-1.9258,-1.9278,-1.926,-1.9266,-1.9284,-1.9287,-1.9316,-1.9283,-1.9309,-1.931,-1.9306,-1.9374,-1.9385,-1.9434,-1.9352,-1.9353,-1.9354,0,-1.9177,-1.9193,-1.9238,-1.9248,-1.9257,-1.9278,-1.9295,-1.9312,-1.9324,-1.9324,-1.9336,-1.9328,-1.9355,-1.933,-1.9367,-1.9345,-1.9355,-1.9358,-1.936,-1.9362,-1.9334,-1.9377,-1.945,-1.9458,-1.9364,-1.9364,-1.9363,0,-1.9223,-1.9255,-1.9287,-1.9294,-1.9306,-1.9321,-1.9327,-1.9337,-1.9349,-1.9364,-1.9372,-1.939,-1.94,-1.9414,-1.9412,-1.9394,-1.9449,-1.9424,-1.945,-1.945,-1.9461,-1.9461,-1.9537,-1.9469,-1.9469,-1.9469,-1.9469,0,-1.9282,-1.931,-1.9308,-1.9327,-1.9359,-1.9353,-1.9385,-1.9389,-1.9398,-1.9418,-1.9407,-1.9426,-1.9421,-1.944,-1.9438,-1.9469,-1.9474,-1.9474,-1.9473,-1.9475,-1.9475,-1.9481,-1.9478,-1.9471,-1.9471,-1.947,-1.947,0,-1.9338,-1.9337,-1.9371,-1.938,-1.9383,-1.9405,-1.9413,-1.9431,-1.9433,-1.9458,-1.9464,-1.9466,-1.9487,-1.9486,-1.9511,-1.951,-1.9547,-1.9543,-1.9543,-1.9542,-1.9567,-1.9565,-1.965,-1.9661,-1.9587,-1.9587,-1.9588,0,-1.9375,-1.9396,-1.9408,-1.942,-1.9427,-1.9447,-1.9459,-1.9455,-1.9468,-1.9483,-1.95,-1.9521,-1.9537,-1.9572,-1.9576,-1.9595,-1.959,-1.9619,-1.9593,-1.9594,-1.959,-1.9589,-1.9591,-1.9624,-1.9624,-1.9625,-1.9626,0,-1.944,-1.9439,-1.9457,-1.9475,-1.9489,-1.9503,-1.9516,-1.9527,-1.9524,-1.954,-1.9562,-1.9574,-1.96,-1.962,-1.9638,-1.9644,-1.9635,-1.9634,-1.9641,-1.9642,-1.9642,-1.9642,-1.9557,-1.9632,-1.9631,-1.9631,-1.963,-1.963,-1.9488,-1.9506,-1.9517,-1.9537,-1.9546,-1.9559,-1.9576,-1.958,-1.9598,-1.9618,-1.9615,-1.964,-1.9651,-1.9674,-1.9682,-1.9701,-1.9691,-1.9701,-1.9704,-1.9706,-1.9709,-1.9639,-1.9705,-1.9705,-1.9704,-1.9704,-1.9704,0,-1.9552,-1.9558,-1.9577,-1.9595,-1.9611,-1.9601,-1.9615,-1.9629,-1.9651,-1.9662,-1.9679,-1.9704,-1.9724,-1.973,-1.9749,-1.9764,-1.976,-1.9769,-1.9767,-1.9769,-1.9717,-1.9709,-1.9772,-1.9772,-1.9772,-1.9772,-1.9772,-1.9772,-1.9588,-1.9618,-1.9618,-1.9654,-1.966,-1.9684,-1.9693,-1.9704,-1.9713,-1.9742,-1.9759,-1.9762,-1.9771,-1.9791,-1.9809,-1.981,-1.9818,-1.9829,-1.9828,-1.9779,-1.9772,-1.9766,-1.9758,-1.9831,-1.9831,-1.9878,-1.9879,-1.9879]},{"header":{"parameterUnit":"m.s-1","parameterCategory":1,"la1":30.2991,"la2":30.254,"lo1":-89.0895,"lo2":-89.0444,"dy":0.0017,"dx":0.0017,"nx":28,"ny":28,"refTime":"2024-05-02T03:00:00:Z","depth":0,"parameterNumber":3,"parameterNumberName":"V-component_of_WINDS"},"data":[0,0,0,0,0,0,0,0,0,0,0,0,0,0,0,0,0,0,0,0,0,0,0,0,0,0,0,0,0,0,0,0,0,0,0,0,0,0,0,0,0,0,0,0,0,0,0,0,0,0,0,0,0,0,0,0,0,0,2.2804,2.2804,0,2.2809,2.2809,2.2809,2.2784,2.2784,2.2783,2.2782,2.2787,2.2788,2.2788,0,0,0,0,0,0,0,0,0,0,0,0,0,2.2772,2.2773,2.2804,2.2804,2.2804,2.2809,2.2809,2.2809,2.2785,2.2784,2.2783,2.2782,2.2787,2.2788,2.2788,0,0,0,0,0,0,0,0,0,0,0,0,0,2.2782,2.2773,2.2804,2.2792,2.2791,2.2809,2.2809,2.2809,2.2785,2.2784,2.2783,2.2782,2.2786,2.2787,2.2789,2.2817,0,0,2.2792,2.2793,0,0,0,0,0,0,0,0,2.2782,2.2783,2.2794,2.2793,2.2792,2.2795,2.2799,2.2812,2.2785,2.2787,2.2782,2.2781,2.279,2.2791,2.2794,2.2817,2.2818,2.2792,2.2793,2.2793,2.2794,0,0,0,0,0,0,0,2.2781,2.2783,2.2806,2.2794,2.2793,2.2787,2.2787,2.2802,2.2795,2.2787,2.2785,2.2786,2.279,2.2793,2.2794,2.2818,2.2792,2.2793,2.2794,2.2794,2.2865,2.2866,0,0,0,0,0,0,2.2782,2.2783,2.2806,2.2806,2.2784,2.2788,2.2788,2.2795,2.2794,2.2793,2.2787,2.2785,2.2792,2.2793,2.2794,2.2828,2.2793,2.2795,2.2795,2.2863,2.2865,2.2866,0,0,0,0,0,0,2.2781,2.2784,2.2805,2.2794,2.2796,2.279,2.2798,2.2796,2.2799,2.2795,2.2793,2.2792,2.2791,2.2793,2.2812,2.2828,2.2795,2.2796,2.2862,2.2864,2.2866,2.2895,0,0,0,0,0,0,2.2781,2.2784,2.2795,2.2794,2.2797,2.2823,2.2798,2.2797,2.2802,2.2799,2.2799,2.2798,2.279,2.281,2.2813,2.2829,2.2797,2.2861,2.2863,2.2865,2.2893,2.2898,2.2902,0,0,0,0,0,2.278,2.2803,2.2796,2.2799,2.281,2.2824,2.2825,2.2816,2.2803,2.2814,2.2811,2.2798,2.2826,2.2812,2.2815,2.2832,2.286,2.2862,2.2865,2.2891,2.2897,2.2902,0,0,0,0,0,0,2.2805,2.2803,2.2795,2.2819,2.2822,2.282,2.2833,2.2823,2.283,2.2827,2.2815,2.2816,2.2837,2.2836,2.2821,2.2859,2.284,2.2844,2.2859,2.2865,2.2869,2.2869,2.2798,0,0,0,0,0,2.2814,2.2825,2.2822,2.2844,2.2846,2.2839,2.2845,2.2838,2.284,2.2842,2.284,2.2843,2.2852,2.2858,2.2867,2.2893,2.2892,2.2906,2.291,2.2914,2.2917,2.2931,2.2937,2.2875,2.2875,2.2875,0,0,2.2831,2.2831,2.2839,2.2849,2.2851,2.2863,2.2841,2.2854,2.2863,2.2843,2.2861,2.2861,2.2863,2.2886,2.2896,2.2886,2.2934,2.2917,2.292,2.2921,2.2934,2.294,2.2945,2.2876,2.2876,2.2876,0,0,2.287,2.2871,2.2889,2.2891,2.2894,2.289,2.2894,2.2894,2.2893,2.2911,2.2897,2.2907,2.2923,2.2925,2.2929,2.2969,2.2957,2.2972,2.2996,2.301,2.3014,2.3019,2.3033,2.3038,2.2975,2.2975,2.2975,0,2.2891,2.2909,2.2899,2.2914,2.2919,2.2903,2.2921,2.2923,2.2929,2.2932,2.2921,2.2942,2.2942,2.2965,2.2975,2.2979,2.2983,2.2972,2.3015,2.3019,2.3023,2.3036,2.3041,2.2977,2.2976,2.2976,2.2976,0,2.2935,2.2948,2.2962,2.2968,2.2974,2.2991,2.2984,2.2991,2.2984,2.2981,2.2999,2.2999,2.3008,2.3013,2.3005,2.3035,2.3029,2.3017,2.2997,2.303,2.3043,2.3048,2.2979,2.2978,2.2978,2.2978,0,0,2.2989,2.299,2.2996,2.2998,2.3001,2.301,2.3026,2.3035,2.3041,2.3046,2.3058,2.3073,2.3062,2.3066,2.3058,2.3071,2.3102,2.3057,2.3056,2.3065,2.3135,2.3144,2.315,2.3095,2.3096,2.3096,2.3135,0,2.3026,2.3054,2.3046,2.3073,2.3085,2.307,2.3083,2.3086,2.3084,2.3093,2.309,2.3101,2.3085,2.3087,2.3099,2.3096,2.3116,2.3093,2.3106,2.3107,2.3106,2.3157,2.3166,2.3202,2.314,2.314,2.3141,0,2.3073,2.308,2.3109,2.311,2.3114,2.3127,2.3134,2.3143,2.3146,2.3144,2.3149,2.3139,2.3154,2.3135,2.3156,2.3141,2.3146,2.3145,2.3147,2.3147,2.3126,2.3159,2.3214,2.3219,2.3148,2.3148,2.3147,0,2.311,2.3126,2.3146,2.3149,2.315,2.3159,2.316,2.3162,2.3168,2.3174,2.3178,2.3186,2.319,2.3196,2.3189,2.3176,2.3211,2.3192,2.321,2.321,2.3217,2.3217,2.3274,2.3221,2.3221,2.3221,2.3221,0,2.3152,2.3171,2.3162,2.3174,2.3194,2.3185,2.3205,2.3204,2.3206,2.3217,2.3205,2.3215,2.3205,2.3215,2.321,2.3228,2.323,2.3228,2.3227,2.3229,2.323,2.3232,2.323,2.3222,2.3222,2.3222,2.3222,0,2.3196,2.3192,2.3212,2.3212,2.3212,2.3227,2.3227,2.3238,2.3234,2.3249,2.3252,2.3247,2.3258,2.3252,2.3263,2.3259,2.3283,2.3278,2.3282,2.3281,2.3299,2.3297,2.3359,2.3367,2.3309,2.331,2.331,0,2.3224,2.3237,2.3239,2.3246,2.3248,2.3259,2.3265,2.3257,2.3264,2.3269,2.3279,2.3289,2.3296,2.3315,2.3312,2.3321,2.3316,2.3337,2.3317,2.3319,2.3316,2.3315,2.3316,2.3341,2.3341,2.3342,2.3342,0,2.3273,2.327,2.3279,2.3288,2.3296,2.3302,2.3307,2.3313,2.3305,2.3313,2.3325,2.3331,2.3342,2.3353,2.336,2.3361,2.335,2.3349,2.3353,2.3356,2.3358,2.3357,2.3293,2.3347,2.3347,2.3346,2.3346,2.3346,2.3309,2.3321,2.3324,2.3335,2.3338,2.3343,2.3354,2.3352,2.3362,2.3371,2.3365,2.3379,2.3382,2.3391,2.3393,2.3403,2.3394,2.3401,2.3403,2.3404,2.3407,2.3357,2.3404,2.3404,2.3404,2.3404,2.3404,0,2.3358,2.3359,2.3369,2.3377,2.3386,2.3376,2.3381,2.3389,2.3401,2.3405,2.3413,2.3426,2.3436,2.3434,2.3443,2.3452,2.3447,2.3454,2.3453,2.3454,2.3414,2.3409,2.3458,2.3458,2.3458,2.3458,2.3458,2.3458,2.3384,2.3403,2.3401,2.3421,2.3422,2.3436,2.344,2.3445,2.3448,2.3463,2.3471,2.347,2.3472,2.3481,2.3489,2.3489,2.3492,2.3501,2.3499,2.3462,2.3457,2.3451,2.3447,2.3502,2.3502,2.3538,2.3538,2.3538]}]]